Regional Weather Roundup
Issued by NWS Green Bay, WI

Home | Current Version | Previous Version | Graphics & Text | Print | Product List | Glossary Off
Versions: 1 2 3 4 5 6 7 8 9 10 11 12 13 14 15 16 17 18 19 20 21 22 23 24 25 26 27 28 29 30 31 32 33 34 35 36 37 38 39 40 41 42 43 44 45 46 47 48 49 50

000
ASUS43 KGRB 050311
RWRGRB

NORTH-CENTRAL AND NORTHEAST WISCONSIN REGIONAL WEATHER ROUNDUP
NATIONAL WEATHER SERVICE GREEN BAY WI
900 PM CST SUN DEC 04 2016

WIZ005-009-010>012-018-019-050400-
NORTH CENTRAL WISCONSIN

CITY           SKY/WX    TMP DP  RH WIND       PRES   REMARKS
IRONWOOD       FLURRIES  31  29  92 S9        29.67F
MANITOWISH WTR MIX PCPN  29  29 100 SW7       29.67F
ARBOR VITAE    MIX PCPN  32  31  95 SW6       29.68F
EAGLE RIVER    CLOUDY    29  29 100 SW6       29.69F FOG
LAND O LAKES   CLOUDY    29  29  97 CALM      29.70F FOG
RHINELANDER    CLOUDY    30  30 100 SW7       29.70F FOG
PHILLIPS       CLOUDY    30  30 100 SW8       29.69F
ANTIGO         CLOUDY    29  29 100 SW10      29.73F FOG
TOMAHAWK       CLOUDY    29  28  96 S3        29.71F FOG
MERRILL        CLOUDY    31  31 100 SW6       29.74F FOG
$$

WIZ013-073-050400-
NORTHEAST WISCONSIN

CITY           SKY/WX    TMP DP  RH WIND       PRES   REMARKS
IRON MOUNTAIN  LGT SNOW  30  27  88 S6        29.72F FOG
MARINETTE      LGT SNOW  32  31  96 SW7       29.79F FOG
OCONTO         CLOUDY    32  30  95 SW3       29.79F
$$

WIZ017-030-035>037-045-050400-
CENTRAL WISCONSIN

CITY           SKY/WX    TMP DP  RH WIND       PRES   REMARKS
MEDFORD        MIX PCPN  30  29  96 S8        29.72F
WAUSAU         CLOUDY    31  30  96 S7        29.73F FOG
MOSINEE        CLOUDY    30  30 100 S7        29.75F FOG
MARSHFIELD     CLOUDY    31  30  96 SW10      29.74F
WISC RAPIDS    CLOUDY    32  31  96 SW9       29.78F
STEVENS POINT  MIX PCPN  29  29 100 S6        29.78F
WAUPACA        CLOUDY    33  31  92 CALM      29.80F FOG
SHAWANO        CLOUDY    33  31  93 SW6       29.79S
CLINTONVILLE   CLOUDY    32  30  93 SW8       29.79S
WAUTOMA        MIX PCPN  31  30  96 SW7       29.82S FOG
$$

WIZ038-039-048-051-050400-
FOX VALLEY

CITY           SKY/WX    TMP DP  RH WIND       PRES   REMARKS
NWS GREEN BAY  CLOUDY    34  32  92 SW10      29.80F
APPLETON       CLOUDY    30  30 100 SW9       29.79F
OSHKOSH        CLOUDY    31  28  89 SW8       29.81S
FOND DU LAC    CLOUDY    32  28  85 SW8       29.82F
$$

WIZ022-050-052-050400-
EAST CENTRAL WISCONSIN

CITY           SKY/WX    TMP DP  RH WIND       PRES   REMARKS
EPHRAIM        LGT SNOW  32  32 100 CALM      29.77F
WASHINGTON ISL FLURRIES  33  32  98 SW8       29.77F
STURGEON BAY   LGT SNOW  32  31  96 SW8       29.79F FOG
MANITOWOC      LGT RAIN  33  30  88 SW5       29.81F FOG
SHEBOYGAN      CLOUDY    31  29  92 SW8       29.81F FOG
$$

LMZ563-521-522-541>543-050400-
LAKESHORE

STATION/POSITION TIME  TEMP    WIND        PRES    VSBY  WAVE
                       AIR SEA DIR/SP/G                  HT/PER
                 (UTC) (F)     (DEG/KT/KT) (MB)    (MI)  (FT/S)
SHEBOYGAN LKSHOR 0300   33     240/ 10/ 12 1010.0F
KEWAUNEE LKSHORE 0248   33     210/  5/  6 1008.9F
ALGOMA MARINA    0221          240/  6/  9   N/A
NORTHPORT PIER   0240   33     190/  2/  4 1008.8F
SISTER BAY LKSHO 0153   33        CALM       N/A
CHAMBERS ISLAND  0240   34     190/  5/ 12 1008.5F
MENOMINEE LKSHOR 0248   33     200/ 10     1008.0F
$$




USA.gov is the U.S. government's official web portal to all federal, state and local government web resources and services.